TimeCST,TemperatureF,Dew PointF,Humidity,Sea Level PressureIn,VisibilityMPH,Wind Direction,Wind SpeedMPH,Gust SpeedMPH,PrecipitationIn,Events,Conditions,WindDirDegrees,DateUTC
12:15 AM,32.9,30.0,89,30.11,10.0,East,9.2,-,N/A,,Mostly Cloudy,100,2012-12-09 06:15:00
12:35 AM,32.9,30.2,90,30.10,10.0,East,10.4,-,N/A,,Overcast,100,2012-12-09 06:35:00
12:55 AM,32.9,30.2,90,30.09,10.0,East,11.5,-,N/A,,Overcast,90,2012-12-09 06:55:00
1:15 AM,32.9,30.6,91,30.08,10.0,East,12.7,-,N/A,,Overcast,100,2012-12-09 07:15:00
1:35 AM,32.9,30.6,91,30.08,10.0,East,11.5,16.1,N/A,,Overcast,90,2012-12-09 07:35:00
1:55 AM,33.1,30.9,92,30.09,10.0,East,10.4,-,N/A,,Overcast,90,2012-12-09 07:55:00
2:15 AM,33.3,31.1,92,30.09,10.0,East,8.1,-,N/A,,Overcast,100,2012-12-09 08:15:00
2:35 AM,33.4,31.1,91,30.09,10.0,ESE,10.4,-,N/A,,Overcast,110,2012-12-09 08:35:00
2:55 AM,33.8,31.1,90,30.08,10.0,ESE,11.5,-,N/A,,Overcast,110,2012-12-09 08:55:00
3:15 AM,33.8,31.1,90,30.08,10.0,East,11.5,-,N/A,,Overcast,100,2012-12-09 09:15:00
3:35 AM,33.8,31.3,90,30.07,10.0,ESE,12.7,-,N/A,,Overcast,110,2012-12-09 09:35:00
3:55 AM,33.8,31.5,91,30.05,10.0,ESE,13.8,-,N/A,,Overcast,110,2012-12-09 09:55:00
4:15 AM,33.8,31.6,92,30.06,10.0,ESE,15.0,-,N/A,,Overcast,120,2012-12-09 10:15:00
4:35 AM,34.0,31.8,92,30.04,7.0,ESE,12.7,17.3,N/A,,Overcast,110,2012-12-09 10:35:00
4:55 AM,34.0,31.8,92,30.03,7.0,East,15.0,20.7,N/A,,Overcast,100,2012-12-09 10:55:00
5:15 AM,34.2,32.0,92,30.03,7.0,East,15.0,18.4,N/A,,Overcast,100,2012-12-09 11:15:00
5:55 AM,34.7,32.0,90,30.02,7.0,ESE,13.8,18.4,N/A,,Overcast,110,2012-12-09 11:55:00
6:15 AM,34.7,32.0,90,30.01,7.0,East,12.7,-,N/A,,Overcast,100,2012-12-09 12:15:00
6:35 AM,34.9,32.2,90,30.00,7.0,East,13.8,-,N/A,,Overcast,100,2012-12-09 12:35:00
6:55 AM,35.1,32.4,90,29.99,7.0,ESE,12.7,18.4,N/A,,Overcast,110,2012-12-09 12:55:00
7:15 AM,35.2,32.5,90,29.99,10.0,ESE,11.5,-,N/A,,Overcast,110,2012-12-09 13:15:00
7:35 AM,35.4,32.9,91,29.98,7.0,ESE,12.7,-,N/A,,Light Drizzle,110,2012-12-09 13:35:00
7:55 AM,35.6,33.3,91,29.97,7.0,East,10.4,-,N/A,,Light Drizzle,100,2012-12-09 13:55:00
8:15 AM,36.0,33.4,91,29.96,7.0,ESE,15.0,18.4,N/A,,Light Drizzle,110,2012-12-09 14:15:00
8:35 AM,36.5,33.8,90,29.96,7.0,ESE,13.8,-,N/A,,Light Drizzle,110,2012-12-09 14:35:00
8:55 AM,36.3,34.2,92,29.95,4.0,ESE,16.1,-,N/A,Rain,Light Rain,120,2012-12-09 14:55:00
9:35 AM,36.5,35.1,95,29.93,7.0,ESE,12.7,18.4,0.02,Rain,Light Rain,110,2012-12-09 15:35:00
9:55 AM,36.5,35.2,95,29.92,5.0,ESE,12.7,-,0.02,Rain,Light Rain,110,2012-12-09 15:55:00
10:15 AM,36.7,35.6,96,29.91,7.0,ESE,12.7,19.6,N/A,,Overcast,110,2012-12-09 16:15:00
10:35 AM,36.9,35.6,95,29.90,7.0,ESE,11.5,-,N/A,Rain,Light Rain,120,2012-12-09 16:35:00
10:55 AM,37.0,35.8,95,29.87,4.0,ESE,13.8,-,N/A,Rain,Rain,110,2012-12-09 16:55:00
11:15 AM,37.4,36.5,97,29.86,5.0,ESE,12.7,-,N/A,Rain,Light Rain,110,2012-12-09 17:15:00
11:35 AM,37.4,36.5,97,29.84,7.0,ESE,12.7,17.3,N/A,,Light Drizzle,120,2012-12-09 17:35:00
11:55 AM,37.6,36.7,97,29.83,7.0,SE,12.7,-,N/A,,Overcast,130,2012-12-09 17:55:00
12:15 PM,37.8,36.9,97,29.82,2.5,SE,9.2,-,N/A,Rain,Light Rain,130,2012-12-09 18:15:00
12:35 PM,37.8,37.0,97,29.80,5.0,SE,10.4,-,N/A,,Light Drizzle,130,2012-12-09 18:35:00
12:55 PM,37.8,37.0,97,29.79,3.0,SE,11.5,-,N/A,,Drizzle,130,2012-12-09 18:55:00
1:15 PM,38.3,37.6,97,29.78,3.0,SE,8.1,-,N/A,,Light Drizzle,140,2012-12-09 19:15:00
1:35 PM,38.3,37.9,99,29.76,3.0,SE,8.1,-,N/A,,Overcast,130,2012-12-09 19:35:00
1:55 PM,38.5,38.3,99,29.74,1.8,ESE,8.1,-,N/A,,Overcast,120,2012-12-09 19:55:00
2:15 PM,38.8,38.5,99,29.74,2.5,SE,5.8,-,N/A,,Overcast,130,2012-12-09 20:15:00
2:35 PM,39.2,38.8,99,29.76,2.0,SSE,4.6,-,N/A,,Overcast,160,2012-12-09 20:35:00
2:55 PM,39.4,39.2,99,29.75,2.0,SE,5.8,-,N/A,,Overcast,140,2012-12-09 20:55:00
3:15 PM,39.6,39.4,99,29.75,1.5,SE,4.6,-,N/A,,Overcast,140,2012-12-09 21:15:00
3:35 PM,39.7,39.6,99,29.76,1.5,South,3.5,-,N/A,,Overcast,170,2012-12-09 21:35:00
3:55 PM,39.9,39.6,99,29.74,1.2,SSE,3.5,-,N/A,,Light Drizzle,150,2012-12-09 21:55:00
4:15 PM,40.1,39.7,99,29.75,1.2,SSE,3.5,-,N/A,Rain,Light Rain,150,2012-12-09 22:15:00
4:35 PM,40.1,40.1,100,29.75,1.2,Calm,Calm,-,N/A,,Overcast,0,2012-12-09 22:35:00
4:55 PM,40.1,40.1,100,29.74,1.0,South,3.5,-,N/A,,Overcast,180,2012-12-09 22:55:00
5:15 PM,40.3,40.1,99,29.73,1.0,Calm,Calm,-,N/A,,Overcast,0,2012-12-09 23:15:00
5:35 PM,40.5,40.3,99,29.72,1.0,Calm,Calm,-,N/A,,Overcast,0,2012-12-09 23:35:00
5:55 PM,40.6,40.5,99,29.72,1.0,Calm,Calm,-,N/A,,Overcast,0,2012-12-09 23:55:00
6:15 PM,41.2,41.2,100,29.72,1.8,SSW,4.6,-,N/A,,Overcast,200,2012-12-10 00:15:00
6:35 PM,41.5,41.5,100,29.72,1.8,SW,5.8,-,N/A,,Overcast,230,2012-12-10 00:35:00
6:55 PM,41.5,41.5,100,29.72,1.5,SW,3.5,-,N/A,,Overcast,230,2012-12-10 00:55:00
7:15 PM,41.9,41.9,100,29.71,1.2,West,4.6,-,N/A,,Overcast,260,2012-12-10 01:15:00
7:35 PM,41.9,41.9,100,29.71,2.0,West,6.9,-,N/A,,Overcast,280,2012-12-10 01:35:00
7:55 PM,41.9,41.9,100,29.71,4.0,West,5.8,-,N/A,,Overcast,280,2012-12-10 01:55:00
8:15 PM,41.5,41.5,100,29.71,5.0,West,9.2,-,N/A,,Overcast,270,2012-12-10 02:15:00
8:35 PM,41.0,41.0,100,29.70,5.0,West,9.2,-,N/A,,Overcast,270,2012-12-10 02:35:00
8:55 PM,40.6,40.6,100,29.71,7.0,West,11.5,-,N/A,,Overcast,260,2012-12-10 02:55:00
9:15 PM,40.1,40.1,100,29.71,10.0,West,15.0,-,N/A,,Overcast,270,2012-12-10 03:15:00
9:35 PM,40.1,40.1,100,29.70,10.0,West,10.4,16.1,N/A,,Overcast,270,2012-12-10 03:35:00
9:55 PM,40.1,39.4,97,29.70,10.0,West,9.2,-,N/A,,Overcast,260,2012-12-10 03:55:00
10:15 PM,39.9,39.2,97,29.71,10.0,West,12.7,-,N/A,,Overcast,260,2012-12-10 04:15:00
10:35 PM,39.4,37.9,95,29.71,10.0,West,9.2,-,N/A,,Overcast,260,2012-12-10 04:35:00
10:55 PM,39.2,37.4,93,29.71,10.0,West,10.4,-,N/A,,Overcast,260,2012-12-10 04:55:00
11:15 PM,38.7,36.7,93,29.70,10.0,West,13.8,-,N/A,,Overcast,280,2012-12-10 05:15:00
11:35 PM,38.5,36.5,93,29.71,10.0,West,12.7,19.6,N/A,,Overcast,270,2012-12-10 05:35:00
11:55 PM,37.8,36.5,95,29.71,10.0,West,13.8,-,N/A,,Overcast,280,2012-12-10 05:55:00